User: anonymous   Login
Location: Coleman
(45.0650°N, 88.0340°W)
Time: 21:33:37
(UTC-05:00)
Language:

Iridium 97 - Orbit

View from above orbital plane
View from above orbital plane
View from above satellite
View from above satellite

Ground track
Ground track

The orbit data is extracted from the following two-line orbital elements,

1 27450U 02031A   14304.19647884  .00000442  00000-0  15076-3 0  4338
2 27450 086.3982 000.1914 0003142 115.5551 244.5969 14.34221601652639
Epoch (UTC): 31 October 2014 04:42:55
Eccentricity: 0.0003142
inclination: 86.3982°
perigee height: 775 km
apogee height: 780 km
right ascension of ascending node: 0.1914°
argument of perigee: 115.5551°
revolutions per day: 14.34221601
mean anomaly at epoch: 244.5969°
orbit number at epoch: 65263

The dashed part of the orbit path shows where the satellite is in the earth's shadow,  

DLR